Wind_Speed
7 7 7 8 9 10 11 13 11 12 10 3 9 16 15 14 15 16 14 16 16 17 18 16 14 22 20 22 24 21 18 11 17 15 16 12 7 8 22 15 9 3 1 5
7 7 7 7 8 10 11 9 11 12 13 6 9 13 13 12 17 20 17 19 16 18 17 9 17 23 17 15 16 21 21 15 8 10 20 21 22 6 10 11 12 7 2 3
7 7 7 7 8 10 9 10 9 11 11 9 8 6 15 14 16 18 16 18 14 17 13 17 20 24 14 15 15 14 28 43 41 24 26 30 43 33 21 11 9 7 11 18
6 6 7 7 9 9 9 11 12 12 12 7 7 9 13 15 15 19 19 14 13 13 14 13 22 22 15 16 11 8 9 13 22 27 35 44 53 50 40 41 25 15 15 13
5 6 7 8 9 10 11 13 9 13 13 13 9 9 12 17 20 21 20 17 11 2 8 15 24 26 20 20 7 5 10 9 6 10 6 29 55 40 42 36 39 29 16 16
5 6 8 9 10 10 14 13 13 11 15 13 10 12 13 16 20 19 20 18 15 3 4 5 7 17 25 26 21 11 8 7 9 8 13 13 46 43 27 35 33 39 35 29
6 7 8 10 9 12 15 14 15 10 17 16 17 15 14 13 16 18 17 19 19 5 5 3 4 8 21 30 24 14 9 7 7 8 6 11 27 25 18 31 37 37 33 36
6 7 10 11 11 14 16 16 12 11 22 19 16 14 15 12 10 15 18 19 22 8 4 4 2 4 8 16 34 23 10 9 12 7 21 8 40 28 18 16 41 42 43 42
6 9 10 12 12 16 16 17 15 12 17 21 14 16 19 21 9 9 15 13 17 7 6 6 8 9 8 13 10 32 31 34 28 19 11 11 30 33 11 13 36 44 45 48
6 8 10 12 13 15 16 14 14 12 18 16 14 15 21 24 22 15 10 13 13 12 22 26 18 14 14 11 12 17 24 30 34 26 13 17 31 23 23 39 26 37 39 41
6 8 9 11 13 13 16 11 13 12 16 18 13 12 17 22 26 24 17 15 14 13 17 15 12 19 13 18 26 18 13 8 11 11 10 10 24 33 37 29 30 34 35 37
6 8 9 10 11 13 11 10 12 13 16 21 15 13 17 23 24 25 26 25 23 17 15 20 21 27 24 24 17 21 28 32 23 15 18 18 24 27 27 27 30 33 34 34
6 8 9 9 10 11 9 9 12 11 13 20 12 18 18 20 22 23 22 24 22 22 26 31 31 27 20 19 25 23 20 18 18 15 19 20 22 23 24 25 28 29 30 31
7 8 9 10 10 12 11 8 9 14 15 21 20 17 17 22 21 20 23 23 20 17 20 26 30 27 25 28 24 23 21 21 22 21 17 18 20 22 23 24 24 26 29 29
8 7 9 10 11 13 12 10 11 10 10 20 19 17 21 21 20 19 19 16 16 17 20 24 27 27 23 21 22 22 21 21 22 20 18 19 20 21 23 25 26 28 28 28
9 8 9 9 10 12 11 11 11 12 11 14 15 14 17 17 18 17 17 16 15 16 15 14 15 13 11 16 20 17 17 18 18 16 16 16 17 18 19 21 22 24 25 28
10 9 9 9 9 7 7 8 8 7 7 7 7 9 10 12 11 12 14 16 17 17 19 21 19 19 20 19 17 13 13 13 14 15 15 16 18 18 18 19 19 20 21 23
11 10 9 8 8 7 7 8 7 4 3 4 5 9 8 8 8 8 8 9 10 11 12 12 10 9 8 9 11 10 11 12 13 14 15 17 18 18 19 20 19 18 18 19
13 11 9 8 7 7 6 5 5 3 2 2 5 7 6 5 6 4 4 4 5 7 8 8 6 5 4 5 7 9 11 12 13 14 15 17 19 18 18 18 18 18 17 17
13 13 12 10 8 6 5 3 3 4 5 4 6 6 6 5 4 2 2 2 2 2 3 3 4 3 5 5 6 8 11 11 13 14 15 19 21 22 22 21 20 19 20 19
14 13 12 10 9 7 5 4 5 5 4 7 9 9 8 6 4 2 1 0 0 0 0 0 1 1 5 6 7 7 9 11 12 13 15 17 20 22 25 23 22 21 21 21
13 13 12 11 9 7 6 5 6 6 7 7 13 12 9 7 5 3 2 2 2 2 3 3 3 5 6 7 7 5 6 7 8 9 12 14 16 19 22 24 24 24 22 21
14 15 13 7 9 10 7 8 7 6 6 7 14 13 11 8 6 4 3 3 4 3 4 4 6 8 7 6 5 3 1 2 4 5 7 9 11 14 17 21 24 25 24 21
16 14 11 8 7 8 13 14 8 9 6 8 15 14 11 9 5 4 3 5 4 4 6 6 8 8 8 6 5 3 3 3 3 4 6 7 8 10 12 15 19 22 24 22
16 10 9 14 13 10 6 7 11 11 10 10 16 15 12 8 6 5 6 4 5 6 5 6 8 8 8 7 7 7 8 8 7 7 8 8 9 9 10 12 14 16 18 21
17 14 10 9 10 12 13 10 8 11 13 14 17 13 7 10 6 7 7 5 6 4 6 7 6 8 9 9 9 10 12 11 11 10 10 12 11 11 11 12 13 13 15 17
21 22 21 14 10 4 5 10 13 13 16 18 13 9 9 7 8 9 10 13 8 5 4 7 8 9 10 11 11 10 9 10 12 12 13 12 11 12 12 13 13 14 13 14
Wind_Direction
349 359 5 18 12 18 22 36 36 29 43 66 78 64 69 57 39 28 25 22 13 3 0 341 344 339 342 340 336 336 338 302 308 2 53 87 119 169 186 205 243 261 286 124
355 8 19 18 20 23 31 40 37 37 35 76 70 58 50 39 28 27 25 19 12 11 16 349 355 1 3 2 8 9 7 1 342 25 34 73 54 54 204 193 232 237 214 97
353 18 26 26 29 32 45 44 37 35 36 74 66 66 43 33 30 24 23 12 14 13 37 30 6 3 20 39 55 92 73 67 69 67 59 70 55 62 68 123 53 354 45 330
12 28 34 36 41 46 53 50 50 48 52 66 61 41 39 32 34 25 25 17 7 32 40 38 29 22 37 49 59 77 89 94 60 71 66 56 54 47 52 55 42 39 349 350
32 44 47 46 56 59 63 56 50 58 61 64 58 53 43 39 24 21 15 15 6 17 35 38 33 30 29 24 30 333 0 30 55 86 10 36 50 41 33 48 42 30 23 4
54 56 56 61 62 67 65 60 56 54 70 66 53 37 30 28 24 11 7 5 6 293 277 12 29 30 45 40 13 3 29 30 52 35 34 46 30 10 17 29 46 29 18 9
67 64 68 71 72 74 71 66 56 62 80 64 45 25 22 23 15 11 10 1 4 11 234 224 12 22 34 38 39 47 56 34 29 355 19 51 7 20 51 34 41 42 38 35
75 74 77 77 79 77 73 66 54 62 81 69 58 44 34 23 17 12 9 6 6 31 157 213 283 30 48 37 40 54 55 68 59 65 65 62 18 28 23 29 32 34 32 42
80 80 79 82 79 79 73 69 60 57 80 68 58 51 46 49 53 46 30 25 18 23 106 127 69 44 24 12 44 64 75 84 83 62 68 35 10 29 73 82 21 30 30 31
82 84 83 82 82 80 74 63 65 50 69 71 52 55 50 51 47 47 49 54 59 83 92 77 62 57 53 34 22 9 52 56 56 57 75 40 39 50 53 44 11 30 33 32
96 90 86 86 86 88 78 64 64 60 60 66 54 58 63 59 52 52 51 52 55 60 70 73 71 65 71 59 50 43 45 53 38 52 63 43 41 45 46 41 34 33 33 32
111 97 89 87 95 90 85 73 64 60 72 69 61 76 67 62 57 50 57 61 65 77 90 96 90 84 80 80 64 73 63 74 76 80 92 67 53 50 43 36 33 31 30 30
125 110 99 92 94 103 98 81 68 72 66 70 71 74 68 66 65 63 59 67 73 89 98 98 94 89 91 83 80 87 86 91 97 80 71 63 56 49 43 34 32 31 30 26
135 120 111 103 99 100 96 90 92 84 84 84 74 77 74 65 63 70 67 67 78 83 92 94 97 95 92 93 96 92 87 83 81 80 69 57 46 41 39 38 37 35 31 29
147 133 119 112 104 100 100 97 87 89 97 92 88 83 76 71 70 69 70 75 73 84 89 96 94 99 97 92 86 77 77 76 73 70 60 53 40 36 35 34 33 36 37 39
157 146 128 122 115 110 107 103 101 100 100 91 89 86 89 79 74 70 74 74 78 82 83 96 96 102 98 90 84 79 75 71 66 58 52 46 38 30 29 38 37 36 35 36
170 159 142 137 131 124 110 117 115 114 102 102 95 95 101 98 87 77 72 72 72 75 82 79 85 94 100 99 99 89 72 60 51 48 45 44 34 33 31 28 31 30 30 32
180 172 160 150 140 138 130 131 123 102 80 85 106 130 123 112 105 94 82 74 71 70 76 78 74 76 78 93 97 88 74 62 52 43 38 35 33 32 30 27 24 24 20 21
188 184 181 171 156 150 146 145 139 141 137 146 147 141 150 143 126 107 86 65 59 55 62 70 61 70 82 96 90 88 83 74 66 59 53 49 45 39 34 31 26 23 26 24
191 189 193 189 181 174 171 179 203 222 218 202 188 173 166 162 159 144 79 53 61 55 42 49 46 66 93 98 95 91 79 70 62 51 46 44 41 37 34 30 26 26 31 33
197 194 200 199 202 206 223 235 219 218 217 206 200 189 177 175 174 178 208 259 209 224 208 336 305 147 117 117 107 93 77 59 49 42 38 38 35 32 30 28 27 27 27 28
202 198 197 202 205 209 216 225 217 211 210 211 195 193 193 189 189 207 239 258 239 237 234 238 231 179 147 133 121 102 79 66 46 36 31 31 33 34 32 31 29 25 23 24
203 200 193 201 217 215 218 214 209 203 211 205 197 194 193 199 205 231 247 242 238 245 233 235 210 186 173 157 144 133 76 39 26 16 20 16 21 28 27 24 23 23 23 22
197 200 203 210 210 213 220 225 227 228 232 202 190 196 196 199 206 227 239 236 237 241 230 223 198 194 190 196 203 219 255 285 314 326 341 350 355 11 13 13 13 12 17 20
195 191 208 220 218 220 233 239 233 229 226 214 197 200 205 208 220 224 225 223 230 232 229 203 202 208 212 223 242 258 266 270 276 286 301 315 324 340 351 357 3 4 5 12
204 207 208 213 224 238 244 245 241 221 213 205 199 200 208 213 222 217 214 224 223 242 216 212 219 226 235 246 260 272 271 271 276 280 291 297 302 311 322 329 337 345 352 356
215 219 219 220 229 243 251 236 232 224 216 211 201 205 205 208 219 215 230 241 256 237 237 235 246 240 247 261 269 269 275 268 267 276 287 292 299 303 308 311 316 323 331 339
Height
3090 3089 3089 3087 3086 3085 3084 3082 3082 3080 3078 3079 3076 3075 3075 3077 3076 3073 3070 3067 3065 3062 3058 3053 3051 3048 3045 3039 3035 3027 3023 3016 3010 3007 3007 3005 3007 3008 3014 3019 3019 3015 3016 3027
3089 3089 3088 3087 3086 3085 3083 3083 3082 3080 3079 3078 3077 3077 3077 3076 3075 3073 3069 3067 3065 3062 3059 3056 3053 3049 3044 3040 3037 3031 3025 3019 3013 3012 3012 3010 3011 3011 3015 3018 3020 3020 3021 3025
3089 3088 3088 3087 3086 3084 3084 3083 3082 3081 3080 3078 3078 3078 3077 3076 3075 3073 3070 3068 3065 3064 3061 3058 3054 3050 3045 3042 3040 3037 3033 3030 3029 3032 3033 3026 3019 3014 3013 3015 3021 3026 3027 3024
3089 3088 3088 3087 3086 3085 3085 3083 3083 3082 3080 3079 3079 3079 3079 3077 3076 3074 3071 3069 3065 3065 3062 3060 3057 3051 3047 3044 3042 3041 3039 3038 3035 3039 3036 3027 3022 3024 3025 3024 3031 3032 3030 3025
3089 3088 3088 3087 3086 3086 3086 3085 3085 3082 3081 3081 3081 3080 3080 3078 3075 3073 3071 3069 3066 3064 3063 3062 3059 3055 3050 3050 3045 3042 3041 3040 3040 3038 3035 3032 3024 3033 3037 3034 3032 3032 3031 3026
3089 3089 3088 3088 3088 3087 3086 3086 3085 3085 3084 3083 3082 3081 3080 3078 3076 3074 3071 3068 3065 3063 3063 3063 3062 3060 3057 3052 3046 3043 3042 3042 3041 3039 3036 3033 3021 3042 3044 3044 3037 3035 3029 3029
3090 3090 3090 3089 3089 3088 3088 3088 3087 3086 3084 3084 3083 3082 3080 3079 3076 3074 3071 3067 3063 3063 3061 3063 3063 3062 3060 3057 3050 3045 3044 3044 3042 3041 3038 3043 3061 3054 3051 3049 3041 3036 3034 3026
3091 3092 3091 3091 3091 3089 3090 3090 3091 3089 3085 3087 3087 3085 3082 3079 3077 3075 3070 3068 3063 3060 3060 3062 3063 3063 3064 3061 3057 3049 3047 3047 3047 3048 3050 3061 3055 3051 3052 3051 3046 3038 3033 3026
3093 3092 3092 3092 3092 3092 3093 3093 3093 3091 3089 3088 3089 3088 3085 3081 3078 3077 3074 3070 3066 3062 3062 3063 3064 3067 3068 3067 3065 3061 3055 3051 3050 3054 3057 3068 3072 3061 3053 3052 3047 3039 3034 3027
3094 3094 3094 3094 3094 3094 3096 3096 3095 3093 3089 3091 3091 3090 3087 3083 3081 3078 3076 3074 3071 3070 3066 3064 3068 3072 3074 3074 3073 3068 3064 3063 3061 3063 3067 3079 3074 3069 3059 3047 3066 3051 3044 3037
3095 3095 3095 3095 3095 3096 3098 3099 3097 3096 3093 3093 3093 3093 3091 3088 3085 3082 3079 3076 3074 3073 3071 3072 3074 3077 3079 3080 3079 3076 3071 3072 3072 3073 3076 3084 3080 3073 3063 3072 3066 3058 3050 3044
3096 3096 3096 3097 3097 3097 3100 3100 3099 3098 3097 3095 3096 3096 3094 3091 3089 3087 3084 3082 3079 3077 3077 3078 3080 3082 3083 3083 3084 3083 3081 3083 3082 3082 3087 3087 3083 3079 3076 3074 3068 3062 3056 3050
3097 3097 3097 3098 3098 3099 3101 3102 3102 3101 3099 3099 3101 3098 3098 3096 3094 3092 3092 3089 3087 3085 3085 3083 3083 3086 3091 3089 3090 3091 3090 3089 3088 3089 3091 3088 3086 3084 3081 3077 3072 3067 3062 3056
3098 3099 3099 3100 3100 3101 3102 3104 3104 3104 3103 3102 3104 3103 3102 3099 3098 3098 3096 3094 3094 3094 3091 3088 3087 3088 3095 3095 3096 3095 3096 3094 3094 3093 3093 3092 3090 3087 3083 3081 3077 3072 3067 3061
3099 3100 3100 3102 3102 3103 3104 3106 3106 3106 3107 3104 3106 3108 3105 3104 3104 3102 3101 3101 3101 3100 3098 3096 3095 3096 3099 3100 3100 3100 3100 3099 3098 3097 3096 3094 3092 3089 3085 3082 3078 3074 3071 3067
3099 3101 3101 3102 3103 3105 3106 3108 3109 3109 3109 3108 3108 3111 3110 3110 3109 3108 3106 3105 3105 3104 3103 3102 3102 3102 3103 3103 3104 3106 3104 3103 3102 3101 3099 3097 3095 3091 3088 3085 3082 3078 3075 3070
3100 3102 3102 3103 3105 3106 3108 3110 3111 3111 3111 3111 3112 3113 3113 3112 3113 3112 3111 3110 3109 3108 3107 3107 3107 3107 3106 3106 3106 3107 3106 3105 3104 3103 3101 3100 3097 3094 3091 3087 3084 3081 3078 3074
3099 3102 3103 3105 3106 3107 3108 3109 3110 3111 3112 3112 3112 3114 3114 3115 3115 3115 3114 3114 3113 3112 3111 3110 3110 3110 3109 3110 3109 3109 3108 3107 3105 3104 3102 3100 3098 3095 3092 3088 3086 3083 3079 3076
3099 3101 3104 3105 3107 3108 3109 3110 3110 3111 3115 3113 3113 3114 3115 3116 3116 3116 3116 3116 3115 3115 3113 3112 3112 3110 3111 3111 3110 3110 3109 3108 3107 3106 3104 3102 3100 3097 3095 3092 3088 3084 3081 3078
3097 3100 3103 3105 3106 3108 3110 3110 3111 3111 3111 3112 3113 3113 3114 3117 3116 3116 3116 3116 3115 3115 3116 3113 3112 3111 3111 3110 3110 3110 3109 3109 3108 3106 3105 3103 3101 3099 3096 3093 3089 3085 3083 3080
3096 3098 3101 3104 3105 3107 3109 3109 3109 3109 3110 3110 3111 3113 3114 3116 3116 3116 3116 3116 3116 3115 3116 3114 3113 3112 3111 3110 3110 3110 3110 3109 3109 3108 3106 3104 3102 3099 3097 3094 3091 3087 3083 3080
3096 3098 3100 3102 3104 3105 3107 3106 3106 3106 3107 3106 3108 3111 3113 3114 3115 3116 3116 3115 3115 3114 3114 3114 3112 3112 3111 3111 3111 3111 3111 3110 3110 3109 3108 3106 3104 3102 3099 3097 3094 3090 3087 3084
3094 3096 3098 3100 3101 3101 3101 3101 3102 3103 3103 3104 3106 3109 3111 3113 3114 3115 3115 3114 3113 3113 3112 3110 3110 3110 3111 3111 3111 3111 3111 3111 3110 3109 3109 3107 3105 3103 3101 3098 3096 3093 3089 3085
3090 3093 3095 3096 3094 3094 3095 3097 3099 3101 3102 3103 3105 3108 3111 3111 3113 3113 3112 3112 3112 3109 3107 3105 3107 3108 3109 3110 3110 3110 3110 3110 3109 3109 3108 3107 3105 3103 3101 3099 3097 3095 3092 3088
3087 3089 3089 3089 3090 3091 3093 3094 3096 3098 3100 3102 3104 3107 3109 3110 3111 3111 3110 3109 3107 3104 3102 3103 3105 3106 3107 3108 3108 3109 3108 3108 3107 3107 3106 3105 3103 3102 3100 3099 3097 3095 3092 3089
3081 3081 3082 3085 3087 3088 3090 3092 3093 3095 3097 3100 3102 3104 3106 3107 3107 3105 3105 3104 3101 3101 3100 3102 3103 3104 3105 3106 3106 3106 3105 3105 3105 3104 3103 3102 3101 3099 3098 3097 3095 3094 3092 3089
3072 3074 3079 3082 3084 3086 3087 3088 3090 3092 3094 3096 3099 3100 3101 3101 3100 3099 3099 3098 3099 3099 3100 3100 3101 3101 3102 3102 3102 3103 3102 3102 3102 3101 3101 3099 3098 3096 3095 3094 3093 3091 3090 3088